Погода в Выксе

Погода в Выксе : погода сейчас, прогноз погоды и архив. Всё, что Вы хотите узнать о погоде в Выксе!

Хотите узнать прогноз погоды в Выксе? Тогда Вам сюда: Погода в Выксе

Поиск расширенной информации на нашем сайте:

Другие новости

Новости СМИ2

Главная страница сайта

Новости сайта

03.07.2017

Напоминаем, что на нашем специализированном сайте Метеоцентр.Азия вы можете получить высокодетализированные автоматические прогнозы погоды по пунктам России, СНГ и мира в авиационном формате (включающие направление и скорость ветра, видимость, явления погоды, количество и форму облачности, нижнюю и верхнюю границу облачности).

Рекомендуем: Читайте тампоны clean point инструкция здесь все понятно!

Погода в Выксе - сегодня

Время (UTC), дата Ветер
(°,м/с) 
Видим.   Явления Облачность Т
(°С)
Тd
(°С)
f(%) Тe
(°С)
Pmin
(гПа)
dP
(гПа)
Po
(мм)
O2
(г/м3)
Тmin Tmax R s Состояние
почвы
03 15.08.17 350 (С) 5-8{08}  10 км    10/10 300 м 
[Sc]
+18.5 +17 91 +31  1017.7  0.6  753  280  +18.5        сухая 
06 15.08.17 050 (СВ) 2-4{08}  10 км  гроза, ливневой дождь  9/9 300 м кучево-дожд. 
[Cb cap]
+18.3 +17.1 93 +31  1019.4  1.7  755  281           
09 15.08.17 040 (СВ) 2-3{05}  10 км  {ливн. осадки}  9/9 300 м кучево-дожд. 
[Cb cap]
+19.4 +17.1 87 +32  1021.1  1.7  756  281           
12 15.08.17 050 (СВ) 2-4{06}  10 км  {ливн. осадки}  8/8 600 м кучево-дожд. 
[Cb cap]
+22.4 +16.4 69 +33  1021.5  0.5  756  278           
15 15.08.17 020 (С) 4-6{07}  10 км    6/3 1000 м верхняя 
[Cu hum|Cc]
+22.7 +15.1 62 +31  1021.5  756  278    +22.7     
21 15.08.17 360 (С) 2-3{04}  10 км    ясно 
+15 +12.4 84 +20  1024.4  4.4  758  287           
00 16.08.17 350 (С) 3-3{04}  10 км    ясно 
+13.5 +12 91 +18  1025.4  0.9  759  289           
03 16.08.17 320 (СЗ) 2-2{04}  10 км    ясно 
+12.7 +11.8 94 +16  1026.6  1.1  760  290  +12.6        сухая 
06 16.08.17 050 (СВ) 1-3{04}  10 км    ясно 
+20.3 +14.5 69 +28  1026.7  0.5  760  282           
09 16.08.17 070 (В) 2-5{09}  10 км    8/8 600 м кучево-дожд. 
[Cb cap]
+21.8 +13.7 60 +28  1027.3  0.7  761  281           
12 16.08.17 060 (СВ) 4-6{08}  10 км    6/6 600 м кучево-дожд. 
[Cb cap]
+22.4 +12.2 52 +26  1027.3  761  281           
15 16.08.17 120 (ЮВ) 2-4{06}  10 км    3/3 1000 м 
[Cu hum]
+23.1 +10.2 44 +24  1026.9  -0.4  760  281    +23.1       
18 16.08.17 100 (В) 1-2{05}  10 км    ясно 
+15.9 +12.3 79 +21  1027.3  0.1  760  287           
21 16.08.17 160 (Ю) 1-3{04}  10 км    ясно 
+14.5 +12.1 85 +20  1028  0.6  761  289           
00 17.08.17 тихо () -0{03}  10 км    ясно 
+12.8 +10 83 +14  1028.4  0.3  761  291           
03 17.08.17 360 (С) 1-2{02}  10 км    3/0 средняя 
[Ac trans]
+11.3 +10.2 93 +13  1028.8  0.4  761  293  +11.2        сухая 
06 17.08.17 100 (В) 2-4{04}  10 км    ясно 
+20.1 +9.9 52 +21  1028.7  0.3  761  284           
09 17.08.17 180 (Ю) 1-3{05}  10 км    3/3 1000 м 
[Cu hum]
+23.5 +9.8 42 +24  1027.7  -1  761  281           
12 17.08.17 100 (В) 3-5{06}  10 км    6/6 1000 м 
[Cu hum]
+24.4 +10.6 42 +26  1026.8  -0.8  760  279           
15 17.08.17 130 (ЮВ) 2-4{05}  10 км    3/3 1000 м 
[Cu hum]
+22.8 +9.3 42 +23  1026.1  -0.7  760  281    +24.4       
18 17.08.17 тихо () -0{04}  10 км    ясно 
+14.1 +11.1 82 +16  1026.7  0.2  760  289           
21 17.08.17 160 (Ю) 1-1{02}  10 км    ясно 
+12.9 +11.8 93 +17  1026.8  760  290           
00 18.08.17 тихо () -0{03}  10 км    ясно 
+10.6 +9.7 94 +11  1026.9  760  293           
03 18.08.17 тихо () -0{01}  2000 м  дымка  4/0 верхняя 
[Cc]
+10.9 +10.2 95 +12  1026.1  760  293  +10.5        сухая 
06 18.08.17 тихо () -0{02}  10 км    4/0 верхняя 
[Cc]
+19.2 +12 63 +23  1026.7  0.2  760  284           
Время (UTC), дата Ветер
(°,м/с) 
Видим.   Явления Облачность Т
(°С)
Тd
(°С)
f(%) Тe
(°С)
Pmin
(гПа)
dP
(гПа)
Po
(мм)
O2
(г/м3)
Тmin Tmax R s Состояние
почвы

Для получения пояснительной информации подведите курсор к названию столбца.

ПОГОДА в Выксе - архив

Всё, что Вы хотите узнать о погоде в Выксе - удобно и подробно!

Выберите нужную дату (начиная с 1 января 2015* года) и нажмите кнопку "Найти".
Будут отображены архивные сводки погоды по пункту Выкса, начиная с указанной даты.


Отображать данные в формате CSV (для использования в таблицах Excel)


Внимание! Наш архив погоды предназначен исключительно для личного некоммерческого использования в познавательных целях. Если Вам необходимы официальные справки о состоянии погоды (для производственных, юридических, коммерческих и т.п. целей), обращайтесь в органы Росгидромета.

*Примечание: данная дата относится к архиву по метеостанциям СССР (Россия, СНГ, Балтия).
Архив по метеостанциям Зарубежной Европы и Азии (кроме Китая) хранится 10 дней, по другим регионам земного шара (Китай, Африка, Америка, Австралия, Океания) - 1 день.

Выкса - район местоположения метеостанции


Название, широта, долгота, высота метеостанции:
Выкса 55.3°ш. 42.1°д. 114 м над ур. моря [Российская Федерация]

Дополнительная информация

В oтличие oт бoльшинства пoгoдных сайтoв мы публикуем пoдрoбную метеoинфoрмацию в детальнoм прoфессиoнальнoм фoрмате.

Характеристики температуры и влажнoсти вoздуха измеряются на высoте 2 м в тени вдали oт зданий и деревьев.
Скoрoсть ветра измеряется на высoте 10 м (на урoвне рoста челoвека скoрoсть ветра ниже в 1.5-2 раза). Если метеoстанция нахoдится в гoрoде или в лесу, тo скoрoсть ветра занижена на 2-4 м/с пo сравнению с oткрытым местoм. Скoрoсть ветра над акватoриями крупных рек и oзёр, а также на вершинах хoлмoв на 2-5 м/с выше, чем в oбычных услoвиях.
Атмoсфернoе давление в разных тoчках местнoсти мoжет значительнo oтличаться oт давления на метеoстанции, в зависимoсти oт услoвий рельефа (при пoдъёме на 10 м давление пoнижается примернo на 1 мм рт.ст.).